Flag for Mongolia Weather past 2 weeks in Ulaanbaatar, Mongolia

Now
72 °F

Scattered clouds.


Feels Like: 76 °F
Forecast: 45 / 60 °F
Wind: 10 mph from Northeast

Location: Ulan-Bator

Current Time: Aug 21, 2014 at 4:26:15 PM

Latest Report: Aug 21, 2014 at 4:00 PM


Visibility: N/A

Pressure: 29.71 "Hg

Humidity: 61%

Dew point: 57 °F

Location of UlaanbaatarLocation

Historic Weather in Ulaanbaatar — Graph

°F

Ulaanbaatar temperature yesterday

Maximum temperature yesterday: 77 °F (at 3:00 PM)
Minimum temperature yesterday: 55 °F (at 11:00 PM)
Average temperature yesterday: 67 °F

Past Weeks' High & Low Weather Summary

 TemperatureHumidityPressure
High84 °F (Aug 18, 4:00 PM)100% (Aug 17, 6:30 AM)30.09 "Hg (Aug 17, 6:30 AM)
Low39 °F (Aug 12, 6:00 AM)13% (Aug 18, 4:30 PM)29.59 "Hg (Aug 7, 2:00 PM)
Average62 °F59%29.92 "Hg
* Reported Aug 6 3:00 PM — Aug 21 3:30 PM, Ulaanbaatar, Weather by CustomWeather, © 2014

Note: Actual official high and low records may vary slightly from our data, if they occured in-between our weather recording intervals... More about our weather records

Advertising

Ulaanbaatar weather history for previous 24 hours

 ConditionsComfort  
Time TempWeatherWind HumidityBarometerVisibility
3:30 PM
Aug 21
70 °FScattered clouds.8 mph60%29.71 "HgN/A
3:00 PM68 °FScattered clouds.8 mph64%29.74 "HgN/A
2:30 PM68 °FScattered clouds.6 mph64%29.74 "HgN/A
2:00 PM66 °FPartly sunny.13 mph60%29.77 "HgN/A
1:30 PM64 °FSprinkles. Scattered clouds.8 mph68%29.80 "HgN/A
1:00 PM64 °FScattered clouds.6 mph73%29.83 "HgN/A
12:30 PM63 °FScattered clouds.6 mph83%29.83 "HgN/A
12:00 PM63 °FSprinkles. Scattered clouds.1 mph83%29.86 "HgN/A
11:30 AM64 °FSprinkles. Scattered clouds.3 mph78%29.86 "HgN/A
11:00 AM64 °FSprinkles. Scattered clouds.3 mph68%29.86 "HgN/A
10:30 AM64 °FSprinkles. Scattered clouds.1 mph68%29.86 "HgN/A
10:00 AM66 °FPartly sunny.6 mph68%29.83 "HgN/A
9:30 AM63 °FPartly sunny.10 mph73%29.83 "HgN/A
9:00 AM61 °FPartly sunny.3 mph77%29.86 "HgN/A
8:30 AM59 °FPartly sunny.10 mph77%29.86 "HgN/A
8:00 AM59 °FPartly sunny.8 mph77%29.86 "HgN/A
7:30 AM59 °FPartly sunny.8 mph77%29.86 "HgN/A
7:00 AM59 °FPartly sunny.10 mph77%29.86 "HgN/A
6:30 AM59 °FPassing clouds.10 mph77%29.86 "HgN/A
6:00 AM59 °FPassing clouds.6 mph82%29.86 "HgN/A
5:30 AM59 °FSprinkles. Passing clouds.No wind88%29.89 "HgN/A
5:00 AM59 °FSprinkles. Passing clouds.1 mph82%29.89 "HgN/A
4:30 AM61 °FPassing clouds.3 mph72%29.92 "HgN/A
4:00 AM59 °FLight rain. Passing clouds.6 mph68%29.92 "HgN/A
3:00 AM59 °FPassing clouds.No wind72%29.92 "HgN/A
2:00 AM55 °FPassing clouds.1 mph77%29.89 "HgN/A
1:30 AM54 °FPassing clouds.1 mph77%29.89 "HgN/A
1:00 AM55 °FPassing clouds.No wind72%29.92 "HgN/A
12:30 AM57 °FPassing clouds.No wind67%29.92 "HgN/A
12:00 AM55 °FPassing clouds.No wind72%29.92 "HgN/A
11:30 PM
Aug 20
55 °FPassing clouds.6 mph72%29.92 "HgN/A
11:00 PM55 °FPassing clouds.3 mph72%29.92 "HgN/A
10:30 PM59 °FPassing clouds.6 mph63%29.92 "HgN/A
10:00 PM59 °FPassing clouds.3 mph63%29.92 "HgN/A
9:30 PM61 °FPassing clouds.No wind59%29.92 "HgN/A
9:00 PM61 °FPassing clouds.3 mph59%29.92 "HgN/A
8:30 PM66 °FPartly sunny.3 mph49%29.89 "HgN/A
8:00 PM68 °FPartly sunny.3 mph49%29.89 "HgN/A
7:30 PM72 °FPartly sunny.3 mph41%29.89 "HgN/A
7:00 PM75 °FPartly sunny.6 mph34%29.89 "HgN/A
6:30 PM75 °FPassing clouds.8 mph34%29.89 "HgN/A
6:00 PM77 °FPassing clouds.8 mph32%29.92 "HgN/A
5:30 PM77 °FScattered clouds.3 mph32%29.92 "HgN/A
5:00 PM77 °FScattered clouds.6 mph34%29.92 "HgN/A
4:30 PM77 °FScattered clouds.3 mph34%29.92 "HgN/A
4:00 PM77 °FScattered clouds.3 mph36%29.92 "HgN/A
Weather by CustomWeather, © 2014

See weather overviewHow to use our weather pages